When you browse on this site, cookies collect data to enhance your experience and personalize the content and advertising you see.
Visit our Privacy Policy to learn more. By continuing to use the site, you agree to this use of cookies and data.
  • In Hungary
  • List of Countries
  • For 7 days
  • Water Temperature
  • Weather Map
  • News
  • Weather Widgets
  • user-avatar
    Login

    Hourly Weather Nachod

    Today, 22 August, Thursday

    Time Temperature Precipitation Wind Pressure Humidity
    00:00 +13°C° 0 mm 1 mps 733 mmHg 89%
    01:00 +13°C° 0 mm 1 mps 733 mmHg 88%
    02:00 +13°C° 0 mm 1 mps 733 mmHg 89%
    03:00 +13°C° 0 mm 1 mps 733 mmHg 89%
    04:00 +12°C° 0 mm 2 mps 733 mmHg 90%
    05:00 +13°C° 0 mm 2 mps 733 mmHg 88%
    06:00 +14°C° 0 mm 2 mps 733 mmHg 86%
    07:00 +15°C° 0 mm 2 mps 733 mmHg 84%
    08:00 +16°C° 0 mm 3 mps 733 mmHg 79%
    09:00 +18°C° 0 mm 3 mps 733 mmHg 75%
    10:00 +19°C° 0 mm 4 mps 733 mmHg 70%
    11:00 +20°C° 0 mm 4 mps 733 mmHg 68%
    12:00 +20°C° 0 mm 4 mps 733 mmHg 66%
    13:00 +21°C° 0 mm 5 mps 733 mmHg 63%
    14:00 +21°C° 0 mm 4 mps 733 mmHg 64%
    15:00 +21°C° 0 mm 4 mps 732 mmHg 64%
    16:00 +21°C° 0 mm 4 mps 732 mmHg 64%
    17:00 +19°C° 0 mm 4 mps 732 mmHg 70%
    18:00 +18°C° 0 mm 3 mps 732 mmHg 75%
    19:00 +17°C° 0 mm 3 mps 732 mmHg 80%
    20:00 +16°C° 0 mm 2 mps 732 mmHg 82%
    21:00 +15°C° 0 mm 2 mps 732 mmHg 84%
    22:00 +15°C° 0 mm 2 mps 732 mmHg 87%
    23:00 +14°C° 0 mm 2 mps 732 mmHg 88%

    Tomorrow, 23 August, Friday

    Time Temperature Precipitation Wind Pressure Humidity
    00:00 +14°C° 0 mm 1 mps 732 mmHg 89%
    01:00 +13°C° 0 mm 1 mps 732 mmHg 91%
    02:00 +13°C° 0 mm 1 mps 732 mmHg 92%
    03:00 +13°C° 0 mm 1 mps 732 mmHg 92%
    04:00 +13°C° 0 mm 1 mps 731 mmHg 93%
    05:00 +14°C° 0 mm 1 mps 732 mmHg 90%
    06:00 +15°C° 0 mm 1 mps 732 mmHg 88%
    07:00 +16°C° 0 mm 2 mps 732 mmHg 85%
    08:00 +18°C° 0 mm 2 mps 732 mmHg 80%
    09:00 +19°C° 0 mm 2 mps 732 mmHg 74%
    10:00 +21°C° 0 mm 2 mps 733 mmHg 69%
    11:00 +22°C° 0 mm 3 mps 732 mmHg 67%
    12:00 +22°C° 0 mm 3 mps 732 mmHg 66%
    13:00 +24°C° 0 mm 3 mps 731 mmHg 65%
    14:00 +24°C° 0 mm 3 mps 731 mmHg 66%
    15:00 +24°C° 0 mm 3 mps 731 mmHg 67%
    16:00 +24°C° 0 mm 3 mps 731 mmHg 68%
    17:00 +21°C° 0 mm 3 mps 731 mmHg 74%
    18:00 +20°C° 0 mm 3 mps 730 mmHg 80%
    19:00 +19°C° 0 mm 2 mps 730 mmHg 86%
    20:00 +18°C° 0 mm 2 mps 730 mmHg 87%
    21:00 +18°C° 0 mm 2 mps 730 mmHg 89%
    22:00 +18°C° 0 mm 1 mps 730 mmHg 90%
    23:00 +18°C° 0 mm 1 mps 730 mmHg 91%

    Day after tomorrow, 24 August, Saturday

    Time Temperature Precipitation Wind Pressure Humidity
    00:00 +17°C° 0 mm 2 mps 730 mmHg 91%
    01:00 +16°C° 0 mm 2 mps 730 mmHg 92%
    02:00 +16°C° 0 mm 1 mps 729 mmHg 93%
    03:00 +16°C° 0 mm 1 mps 729 mmHg 93%
    04:00 +16°C° 0 mm 1 mps 729 mmHg 94%
    05:00 +18°C° 0.4 mm 1 mps 729 mmHg 93%
    06:00 +19°C° 0.4 mm 1 mps 729 mmHg 92%
    07:00 +19°C° 0.4 mm 1 mps 729 mmHg 90%
    08:00 +20°C° 0.4 mm 1 mps 729 mmHg 89%
    09:00 +21°C° 0.4 mm 1 mps 729 mmHg 87%
    10:00 +21°C° 0.4 mm 1 mps 729 mmHg 86%
    11:00 +23°C° 0.2 mm 1 mps 729 mmHg 82%
    12:00 +24°C° 0.2 mm 1 mps 729 mmHg 78%
    13:00 +25°C° 0.2 mm 1 mps 729 mmHg 75%
    14:00 +25°C° 1 mm 1 mps 729 mmHg 75%
    15:00 +25°C° 1 mm 2 mps 728 mmHg 74%
    16:00 +26°C° 1 mm 2 mps 728 mmHg 74%
    17:00 +24°C° 0.8 mm 2 mps 728 mmHg 79%
    18:00 +23°C° 0.8 mm 2 mps 728 mmHg 85%
    19:00 +21°C° 0.8 mm 1 mps 727 mmHg 90%
    20:00 +21°C° 0.1 mm 1 mps 728 mmHg 90%
    21:00 +21°C° 0.1 mm 1 mps 728 mmHg 90%
    22:00 +20°C° 0.1 mm 1 mps 728 mmHg 91%
    23:00 +20°C° 0.5 mm 1 mps 728 mmHg 91%

    25 August, Sunday

    Time Temperature Precipitation Wind Pressure Humidity
    00:00 +20°C° 0.5 mm 1 mps 727 mmHg 91%
    01:00 +20°C° 0.5 mm 1 mps 727 mmHg 91%
    02:00 +20°C° 0 mm 1 mps 727 mmHg 90%
    03:00 +20°C° 0 mm 1 mps 727 mmHg 89%
    04:00 +20°C° 0 mm 1 mps 727 mmHg 88%
    05:00 +21°C° 0.3 mm 1 mps 727 mmHg 86%
    06:00 +22°C° 0.3 mm 1 mps 727 mmHg 84%
    07:00 +22°C° 0.3 mm 1 mps 727 mmHg 82%
    08:00 +24°C° 0 mm 1 mps 728 mmHg 76%
    09:00 +25°C° 0 mm 1 mps 728 mmHg 70%
    10:00 +27°C° 0 mm 1 mps 728 mmHg 64%
    11:00 +28°C° 1.3 mm 2 mps 728 mmHg 63%
    12:00 +28°C° 1.3 mm 2 mps 728 mmHg 61%
    13:00 +29°C° 1.3 mm 2 mps 728 mmHg 60%
    14:00 +28°C° 1.3 mm 2 mps 728 mmHg 62%
    15:00 +28°C° 1.3 mm 2 mps 728 mmHg 63%
    16:00 +28°C° 1.3 mm 2 mps 728 mmHg 64%
    17:00 +26°C° 0.7 mm 2 mps 727 mmHg 70%
    18:00 +25°C° 0.7 mm 2 mps 727 mmHg 76%
    19:00 +23°C° 0.7 mm 2 mps 727 mmHg 81%
    20:00 +21°C° 0.4 mm 2 mps 727 mmHg 83%
    21:00 +22°C° 0.4 mm 1 mps 727 mmHg 84%
    22:00 +22°C° 0.4 mm 1 mps 728 mmHg 85%
    23:00 +21°C° 0.3 mm 1 mps 728 mmHg 85%

    26 August, Monday

    Time Temperature Precipitation Wind Pressure Humidity
    00:00 +21°C° 0.3 mm 1 mps 728 mmHg 85%
    01:00 +21°C° 0.3 mm 1 mps 728 mmHg 85%
    02:00 +21°C° 0.1 mm 1 mps 727 mmHg 84%
    03:00 +21°C° 0.1 mm 1 mps 727 mmHg 83%
    04:00 +19°C° 0.1 mm 0 mps 727 mmHg 83%
    05:00 +19°C° 0.4 mm 0 mps 727 mmHg 82%
    06:00 +20°C° 0.4 mm 0 mps 728 mmHg 81%
    07:00 +21°C° 0.4 mm 0 mps 728 mmHg 80%
    08:00 +22°C° 0.1 mm 0 mps 728 mmHg 77%
    09:00 +23°C° 0.1 mm 0 mps 728 mmHg 74%
    10:00 +26°C° 0.1 mm 1 mps 729 mmHg 70%
    11:00 +27°C° 0.5 mm 1 mps 729 mmHg 66%
    12:00 +28°C° 0.5 mm 2 mps 729 mmHg 63%
    13:00 +29°C° 0.5 mm 2 mps 729 mmHg 59%
    14:00 +28°C° 1.2 mm 2 mps 728 mmHg 62%
    15:00 +28°C° 1.2 mm 2 mps 728 mmHg 65%
    16:00 +27°C° 1.2 mm 2 mps 728 mmHg 68%
    17:00 +26°C° 0.6 mm 1 mps 728 mmHg 72%
    18:00 +24°C° 0.6 mm 1 mps 728 mmHg 76%
    19:00 +23°C° 0.6 mm 1 mps 728 mmHg 80%
    20:00 +22°C° 0.3 mm 1 mps 728 mmHg 81%
    21:00 +22°C° 0.3 mm 1 mps 728 mmHg 82%
    22:00 +21°C° 0.3 mm 1 mps 728 mmHg 83%
    23:00 +21°C° 0.7 mm 1 mps 728 mmHg 85%

    27 August, Tuesday

    Time Temperature Precipitation Wind Pressure Humidity
    00:00 +20°C° 0.7 mm 1 mps 728 mmHg 87%
    01:00 +20°C° 0.7 mm 1 mps 728 mmHg 90%
    02:00 +20°C° 0.2 mm 1 mps 728 mmHg 89%
    03:00 +20°C° 0.2 mm 1 mps 728 mmHg 89%
    04:00 +20°C° 0.2 mm 1 mps 727 mmHg 89%
    05:00 +19°C° 0.2 mm 0 mps 728 mmHg 88%
    06:00 +19°C° 0.2 mm 0 mps 728 mmHg 86%
    07:00 +20°C° 0.2 mm 0 mps 728 mmHg 84%
    08:00 +22°C° 0 mm 0 mps 728 mmHg 78%
    09:00 +25°C° 0 mm 1 mps 728 mmHg 72%
    10:00 +27°C° 0 mm 1 mps 728 mmHg 66%
    11:00 +28°C° 0.4 mm 1 mps 728 mmHg 64%
    12:00 +28°C° 0.4 mm 1 mps 728 mmHg 62%
    13:00 +29°C° 0.4 mm 1 mps 728 mmHg 60%
    14:00 +29°C° 0.6 mm 1 mps 728 mmHg 60%
    15:00 +29°C° 0.6 mm 1 mps 727 mmHg 60%
    16:00 +29°C° 0.6 mm 1 mps 727 mmHg 60%
    17:00 +27°C° 0.1 mm 1 mps 727 mmHg 66%
    18:00 +25°C° 0.1 mm 1 mps 726 mmHg 72%
    19:00 +24°C° 0.1 mm 1 mps 726 mmHg 77%
    20:00 +23°C° 0 mm 1 mps 726 mmHg 78%
    21:00 +23°C° 0 mm 1 mps 726 mmHg 79%
    22:00 +22°C° 0 mm 1 mps 726 mmHg 80%
    23:00 +22°C° 0 mm 1 mps 726 mmHg 79%
    Show more